This is the latest recevied weather packets stored in our database for station/object NW5W-12. If no packets are shown the sender has not sent any weather packets the latest 10 day(s).
| Time | Temp. | Humidity | Pressure | Rain* | Wind** | Luminosity | Snow |
|---|---|---|---|---|---|---|---|
| 1787943540 | 23.33° C | 38% | 1022.6 hPa | 0 mm | - | - | - |
| 1787943240 | 23.33° C | 38% | 1022.7 hPa | 0 mm | - | - | - |
| 1787942939 | 23.33° C | 38% | 1022.7 hPa | 0 mm | - | - | - |
| 1787942640 | 23.33° C | 39% | 1022.7 hPa | 0 mm | - | - | - |
| 1787942340 | 23.33° C | 38% | 1022.7 hPa | 0 mm | - | - | - |
| 1787942040 | 23.33° C | 39% | 1022.8 hPa | 0 mm | - | - | - |
| 1787941740 | 22.78° C | 39% | 1022.8 hPa | 0 mm | - | - | - |
| 1787941440 | 22.78° C | 40% | 1022.9 hPa | 0 mm | - | - | - |
| 1787941140 | 22.78° C | 39% | 1022.8 hPa | 0 mm | - | - | - |
| 1787940840 | 22.78° C | 40% | 1022.8 hPa | 0 mm | - | - | - |
| 1787940540 | 23.33° C | 43% | 1022.9 hPa | 0 mm | - | - | - |
| 1787940240 | 22.78° C | 44% | 1022.9 hPa | 0 mm | - | - | - |
| 1787939940 | 22.78° C | 47% | 1023 hPa | 0 mm | - | - | - |
| 1787939640 | 22.78° C | 50% | 1023 hPa | 0 mm | - | - | - |
| 1787939340 | 22.22° C | 52% | 1023 hPa | 0 mm | - | - | - |
| 1787939039 | 22.22° C | 52% | 1023 hPa | 0 mm | - | - | - |
| 1787938740 | 22.22° C | 53% | 1023 hPa | 0 mm | - | - | - |
| 1787938440 | 22.78° C | 45% | 1023.1 hPa | 0 mm | - | - | - |
| 1787938140 | 22.22° C | 44% | 1022.9 hPa | 0 mm | - | - | - |
| 1787937840 | 22.22° C | 43% | 1023 hPa | 0 mm | - | - | - |
| 1787937540 | 22.22° C | 43% | 1023.1 hPa | 0 mm | - | - | - |
| 1787937239 | 22.78° C | 40% | 1023.4 hPa | 0 mm | - | - | - |
| 1787936940 | 22.78° C | 39% | 1023.8 hPa | 0 mm | - | - | - |
| 1787936639 | 22.78° C | 38% | 1023.6 hPa | 0 mm | - | - | - |
| 1787936340 | 23.33° C | 38% | 1023.5 hPa | 0 mm | - | - | - |
* Rain since midnight (hover to see other rain measurements)
** Current wind speed in m/s (hover to see current wind gust speed)